Location: ?
(35.4996°N, 139.3166°E)
Time: 05:33:00
(UTC+00:00)

SL-16 R/B - Visible Passes

Search period start: 13 July 2024 00:00
Search period end: 23 July 2024 00:00
Orbit: 984 x 1007 km, 99.7° (Epoch: 12 July)

Date Brightness Start Highest point End Pass type
(mag) Time Alt. Az. Time Alt. Az. Time Alt. Az.
13 Jul 4.9 16:05:48 10° E 16:09:33 17° ENE 16:13:17 10° NNE visible
13 Jul 2.4 17:47:16 15° S 17:52:26 71° WSW 17:58:37 10° NNW visible
14 Jul 4.2 16:34:41 10° SE 16:39:55 30° ENE 16:45:08 10° N visible
14 Jul 3.0 18:18:31 14° SSW 18:23:16 38° W 18:28:59 10° NNW visible
15 Jul 3.2 17:04:41 11° SE 17:10:26 53° ENE 17:16:24 10° N visible
15 Jul 3.7 18:49:46 10° SW 18:54:14 21° W 18:58:45 10° NW visible
16 Jul 5.1 15:55:36 10° E 15:58:23 13° ENE 16:01:09 10° NNE visible
16 Jul 2.4 17:35:56 16° SSE 17:41:05 87° WSW 17:47:17 10° NNW visible
17 Jul 4.5 16:23:55 10° ESE 16:28:41 24° ENE 16:33:27 10° NNE visible
17 Jul 2.7 18:07:12 16° S 18:11:52 48° W 18:17:49 10° NNW visible
18 Jul 3.6 16:53:24 10° SE 16:59:09 42° ENE 17:04:54 10° N visible
18 Jul 3.5 18:38:27 13° SSW 18:42:47 26° W 18:47:52 10° NW visible
19 Jul 5.3 15:46:21 10° ENE 15:47:14 10° ENE 15:48:07 10° NE visible
19 Jul 2.6 17:24:38 16° SSE 17:29:45 76° ENE 17:35:55 10° N visible
19 Jul 4.1 19:10:54 10° WSW 19:13:50 14° W 19:16:47 10° WNW visible
20 Jul 4.8 16:13:18 10° ESE 16:17:29 19° ENE 16:21:40 10° NNE visible
20 Jul 2.5 17:55:53 18° S 18:00:29 61° WSW 18:06:36 10° NNW visible
21 Jul 3.9 16:42:27 10° SE 16:47:53 34° ENE 16:53:20 10° N visible
21 Jul 3.2 18:27:09 16° SSW 18:31:21 33° W 18:36:51 10° NW visible
22 Jul 2.9 17:13:19 15° SSE 17:18:27 61° ENE 17:24:30 10° N visible
22 Jul 3.9 18:58:25 10° SW 19:02:21 18° W 19:06:22 10° NW visible
